This is the latest recevied weather packets stored in our database for station/object SP7QPD-1. If no packets are shown the sender has not sent any weather packets the latest 10 day(s).
| Time | Temp. | Humidity | Pressure | Rain* | Wind** | Luminosity | Snow |
|---|---|---|---|---|---|---|---|
| 1777890783 | 24.44° C | 38% | 1011.5 hPa | 0 mm | - | - | - |
| 1777890183 | 24.44° C | 38% | 1011.7 hPa | 0 mm | - | - | - |
| 1777889583 | 24.44° C | 38% | 1011.9 hPa | 0 mm | - | - | - |
| 1777888983 | 24.44° C | 38% | 1012.1 hPa | 0 mm | - | - | - |
| 1777888382 | 23.89° C | 39% | 1012.1 hPa | 0 mm | - | - | - |
| 1777887782 | 23.89° C | 39% | 1012.1 hPa | 0 mm | - | - | - |
| 1777887182 | 23.33° C | 40% | 1012.2 hPa | 0 mm | - | - | - |
| 1777886582 | 23.33° C | 40% | 1012.3 hPa | 0 mm | - | - | - |
| 1777885982 | 22.78° C | 41% | 1012.5 hPa | 0 mm | - | - | - |
| 1777885382 | 22.78° C | 41% | 1012.5 hPa | 0 mm | - | - | - |
| 1777884782 | 22.78° C | 42% | 1012.6 hPa | 0 mm | - | - | - |
| 1777884182 | 22.22° C | 42% | 1012.6 hPa | 0 mm | - | - | - |
| 1777883582 | 21.67° C | 43% | 1012.6 hPa | 0 mm | - | - | - |
| 1777882982 | 21.67° C | 44% | 1012.6 hPa | 0 mm | - | - | - |
| 1777882382 | 21.11° C | 44% | 1012.5 hPa | 0 mm | - | - | - |
| 1777881782 | 20.56° C | 45% | 1012.5 hPa | 0 mm | - | - | - |
| 1777881182 | 20° C | 46% | 1012.5 hPa | 0 mm | - | - | - |
| 1777880581 | 19.44° C | 48% | 1012.5 hPa | 0 mm | - | - | - |
| 1777879981 | 18.89° C | 49% | 1012.6 hPa | 0 mm | - | - | - |
| 1777879381 | 17.78° C | 50% | 1012.6 hPa | 0 mm | - | - | - |
| 1777878781 | 17.78° C | 50% | 1012.5 hPa | 0 mm | - | - | - |
| 1777878181 | 17.22° C | 51% | 1012.6 hPa | 0 mm | - | - | - |
| 1777877581 | 17.22° C | 52% | 1012.7 hPa | 0 mm | - | - | - |
| 1777876981 | 16.67° C | 52% | 1012.6 hPa | 0 mm | - | - | - |
| 1777876381 | 16.11° C | 54% | 1012.7 hPa | 0 mm | - | - | - |
* Rain latest hour (hover to see other rain measurements)
** Current wind speed in m/s (hover to see current wind gust speed)